CW3660 Weather Reports


Display with metric or nautical units.
time (UTC)temp
F
wind
direction
speed
MPH
gust
MPH
rain 1hr
in
rain 24hr
in
rain mn
in
humidity
%
barometer
mb
20260504215035 71 203 4.0 12.0 0.00 0.00 0.00 32 1006.1
20260504214036 71 225 5.0 11.0 0.00 0.00 0.00 31 1006.1
20260504213016 71 225 5.0 14.0 0.00 0.00 0.00 31 1006.0
20260504212016 71 270 4.0 11.0 0.00 0.00 0.00 30 1006.0
20260504211016 72 248 4.0 13.0 0.00 0.00 0.00 31 1006.0
20260504210035 72 225 4.0 14.0 0.00 0.00 0.00 29 1005.9
20260504205016 73 225 4.0 16.0 0.00 0.00 0.00 30 1006.1
20260504204015 73 248 5.0 16.0 0.00 0.00 0.00 30 1006.0
20260504203016 73 248 4.0 9.0 0.00 0.00 0.00 30 1006.1
20260504202015 72 248 5.0 11.0 0.00 0.00 0.00 29 1006.0
20260504201015 72 248 3.0 9.0 0.00 0.00 0.00 30 1006.0
20260504200036 72 225 5.0 11.0 0.00 0.00 0.00 29 1006.1
20260504195015 73 248 5.0 14.0 0.00 0.00 0.00 28 1006.2
20260504194015 73 225 6.0 16.0 0.00 0.00 0.00 27 1006.2
20260504193016 73 248 5.0 15.0 0.00 0.00 0.00 28 1006.1
20260504192015 72 248 6.0 15.0 0.00 0.00 0.00 27 1006.2
20260504191015 72 248 6.0 17.0 0.00 0.00 0.00 28 1006.4
20260504190015 71 225 6.0 15.0 0.00 0.00 0.00 29 1006.5
20260504185015 71 225 7.0 17.0 0.00 0.00 0.00 27 1006.6
20260504184035 72 248 6.0 15.0 0.00 0.00 0.00 28 1006.7
20260504183017 72 225 5.0 15.0 0.00 0.00 0.00 28 1006.8
20260504182015 72 248 6.0 19.0 0.00 0.00 0.00 28 1006.8
20260504181017 72 225 4.0 10.0 0.00 0.00 0.00 29 1006.8
20260504180017 70 225 7.0 19.0 0.00 0.00 0.00 29 1006.9
20260504175017 71 225 6.0 14.0 0.00 0.00 0.00 29 1006.9
20260504174017 70 248 6.0 16.0 0.00 0.00 0.00 30 1007.1
20260504173017 70 248 6.0 13.0 0.00 0.00 0.00 30 1007.1
20260504172037 69 248 7.0 16.0 0.00 0.00 0.00 30 1007.2
20260504171017 68 225 8.0 22.0 0.00 0.00 0.00 30 1007.2
20260504151017 66 248 5.0 13.0 0.00 0.00 0.00 36 1008.6
20260504141017 63 225 4.0 10.0 0.00 0.00 0.00 41 1009.1
20260504081016 45 180 1.0 3.0 0.00 0.01 0.00 61 1010.1
20260504050016 38 0.0 2.0 0.00 0.01 0.00 70 1010.0
20260504045016 38 0.0 1.0 0.00 0.01 0.00 70 1009.9
20260504044036 38 0.0 0.0 0.00 0.01 0.00 69 1010.0
20260504043016 39 0.0 0.0 0.00 0.01 0.00 68 1010.0
20260504042016 39 0.0 0.0 0.00 0.01 0.00 68 1010.0
20260504041016 39 0.0 0.0 0.00 0.01 0.00 67 1009.9
20260504040016 39 0.0 0.0 0.00 0.01 0.01 67 1009.8
20260504035017 40 0.0 0.0 0.00 0.01 0.01 67 1009.7
20260504034036 40 0.0 0.0 0.00 0.01 0.01 66 1009.7
20260504033016 40 0.0 1.0 0.00 0.01 0.01 65 1009.6
20260504032016 41 315 1.0 2.0 0.00 0.01 0.01 64 1009.6
20260504031016 41 0.0 0.0 0.00 0.01 0.01 61 1009.6
20260504030016 42 0.0 0.0 0.00 0.01 0.01 60 1009.6
20260504025036 42 0.0 0.0 0.00 0.01 0.01 60 1009.5
20260504024016 42 0.0 0.0 0.00 0.01 0.01 59 1009.4
20260504023016 43 0.0 0.0 0.00 0.01 0.01 59 1009.5
20260504022036 43 0.0 1.0 0.00 0.01 0.01 59 1009.5
20260504021016 43 0.0 0.0 0.00 0.01 0.01 56 1009.4
20260504020016 44 0.0 2.0 0.00 0.01 0.01 56 1009.3
20260504015016 44 0.0 2.0 0.00 0.01 0.01 56 1009.4
20260504014016 45 0.0 2.0 0.00 0.01 0.01 54 1009.2
20260504013016 46 0.0 0.0 0.00 0.01 0.01 52 1009.1
20260504012017 46 0.0 0.0 0.00 0.01 0.01 50 1009.1
20260504011016 47 0.0 0.0 0.00 0.01 0.01 49 1009.0
20260504010016 47 0.0 0.0 0.00 0.01 0.01 48 1008.9
20260504005036 48 0.0 0.0 0.00 0.01 0.01 47 1008.7
20260504004016 48 0.0 0.0 0.00 0.01 0.01 47 1008.6
20260504003016 49 0.0 0.0 0.00 0.01 0.01 46 1008.6
20260504002016 49 0.0 2.0 0.00 0.01 0.01 46 1008.5
20260504001016 50 315 1.0 3.0 0.00 0.01 0.01 45 1008.3
20260504000016 50 315 1.0 4.0 0.00 0.01 0.01 44 1008.3
20260503235036 50 293 3.0 11.0 0.00 0.01 0.01 43 1008.2
20260503234016 51 315 3.0 8.0 0.00 0.01 0.01 42 1008.0
20260503233036 51 315 3.0 8.0 0.00 0.01 0.01 42 1007.9
20260503232016 51 293 4.0 10.0 0.00 0.01 0.01 41 1007.9
20260503231016 51 315 5.0 10.0 0.00 0.01 0.01 41 1007.7
20260503230016 51 315 6.0 15.0 0.00 0.01 0.01 40 1007.6
20260503225016 52 293 6.0 16.0 0.00 0.01 0.01 39 1007.5
20260503224036 52 315 6.0 15.0 0.00 0.01 0.01 39 1007.4
20260503223037 52 315 4.0 9.0 0.00 0.01 0.01 41 1007.2
20260503222016 52 315 5.0 10.0 0.00 0.01 0.01 40 1007.0
20260503221016 52 315 5.0 12.0 0.00 0.01 0.01 40 1007.0
20260503220016 52 315 7.0 17.0 0.00 0.01 0.01 39 1006.9